Previsão horária em Senec

Hoje, 30 Julho, Sexta-feira

Tempo Temperatura Precipitação Vento Pressão Humidade
00:00 +23°C° 0 mm 1 m/s 748 mmHg 54%
01:00 +22°C° 0 mm 1 m/s 748 mmHg 57%
02:00 +22°C° 0 mm 1 m/s 748 mmHg 60%
03:00 +21°C° 0 mm 1 m/s 748 mmHg 63%
04:00 +19°C° 0 mm 0 m/s 748 mmHg 65%
05:00 +22°C° 0.1 mm 1 m/s 748 mmHg 62%
06:00 +23°C° 0.1 mm 1 m/s 748 mmHg 60%
07:00 +25°C° 0.1 mm 1 m/s 748 mmHg 57%
08:00 +27°C° 0 mm 1 m/s 748 mmHg 51%
09:00 +29°C° 0 mm 2 m/s 748 mmHg 44%
10:00 +31°C° 0 mm 2 m/s 747 mmHg 38%
11:00 +34°C° 0 mm 3 m/s 747 mmHg 34%
12:00 +35°C° 0 mm 3 m/s 746 mmHg 31%
13:00 +36°C° 0 mm 3 m/s 746 mmHg 27%
14:00 +36°C° 0 mm 2 m/s 746 mmHg 26%
15:00 +37°C° 0 mm 2 m/s 745 mmHg 24%
16:00 +37°C° 0 mm 2 m/s 745 mmHg 23%
17:00 +35°C° 0 mm 2 m/s 745 mmHg 28%
18:00 +32°C° 0 mm 2 m/s 744 mmHg 33%
19:00 +30°C° 0 mm 2 m/s 744 mmHg 38%
20:00 +29°C° 0 mm 2 m/s 744 mmHg 41%
21:00 +27°C° 0 mm 2 m/s 744 mmHg 45%
22:00 +26°C° 0 mm 2 m/s 744 mmHg 49%
23:00 +25°C° 0 mm 2 m/s 744 mmHg 51%

Amanhã, 31 Julho, Sábado

Tempo Temperatura Precipitação Vento Pressão Humidade
00:00 +25°C° 0 mm 2 m/s 744 mmHg 54%
01:00 +24°C° 0 mm 2 m/s 744 mmHg 57%
02:00 +23°C° 0.7 mm 2 m/s 744 mmHg 64%
03:00 +21°C° 0.7 mm 2 m/s 744 mmHg 72%
04:00 +20°C° 0.7 mm 2 m/s 744 mmHg 79%
05:00 +20°C° 0.9 mm 2 m/s 745 mmHg 82%
06:00 +21°C° 0.9 mm 3 m/s 745 mmHg 85%
07:00 +21°C° 0.9 mm 3 m/s 746 mmHg 88%
08:00 +21°C° 0.8 mm 3 m/s 746 mmHg 86%
09:00 +21°C° 0.8 mm 3 m/s 746 mmHg 84%
10:00 +22°C° 0.8 mm 3 m/s 746 mmHg 82%
11:00 +25°C° 0 mm 3 m/s 746 mmHg 71%
12:00 +27°C° 0 mm 3 m/s 746 mmHg 59%
13:00 +29°C° 0 mm 3 m/s 746 mmHg 48%
14:00 +30°C° 0 mm 3 m/s 746 mmHg 45%
15:00 +31°C° 0 mm 2 m/s 746 mmHg 43%
16:00 +31°C° 0 mm 2 m/s 745 mmHg 40%
17:00 +29°C° 0.3 mm 2 m/s 746 mmHg 53%
18:00 +26°C° 0.3 mm 2 m/s 746 mmHg 65%
19:00 +24°C° 0.3 mm 2 m/s 746 mmHg 78%
20:00 +23°C° 0.4 mm 2 m/s 746 mmHg 81%
21:00 +21°C° 0.4 mm 2 m/s 746 mmHg 84%
22:00 +21°C° 0.4 mm 2 m/s 746 mmHg 87%
23:00 +20°C° 0.5 mm 2 m/s 746 mmHg 89%

Depois de amanhã, 1 Agosto, Domingo

Tempo Temperatura Precipitação Vento Pressão Humidade
00:00 +21°C° 0.5 mm 1 m/s 746 mmHg 90%
01:00 +20°C° 0.5 mm 1 m/s 746 mmHg 92%
02:00 +20°C° 0.7 mm 1 m/s 745 mmHg 92%
03:00 +20°C° 0.7 mm 1 m/s 745 mmHg 93%
04:00 +20°C° 0.7 mm 1 m/s 744 mmHg 93%
05:00 +21°C° 0.5 mm 1 m/s 744 mmHg 90%
06:00 +21°C° 0.5 mm 2 m/s 744 mmHg 86%
07:00 +21°C° 0.5 mm 2 m/s 744 mmHg 83%
08:00 +24°C° 0.3 mm 2 m/s 744 mmHg 76%
09:00 +25°C° 0.3 mm 2 m/s 744 mmHg 70%
10:00 +26°C° 0.3 mm 2 m/s 744 mmHg 64%
11:00 +27°C° 0 mm 3 m/s 744 mmHg 61%
12:00 +28°C° 0 mm 3 m/s 743 mmHg 58%
13:00 +29°C° 0 mm 4 m/s 743 mmHg 55%
14:00 +28°C° 0.2 mm 5 m/s 743 mmHg 59%
15:00 +27°C° 0.2 mm 6 m/s 743 mmHg 64%
16:00 +24°C° 0.2 mm 7 m/s 743 mmHg 68%
17:00 +22°C° 1 mm 7 m/s 744 mmHg 75%
18:00 +20°C° 1 mm 6 m/s 744 mmHg 81%
19:00 +17°C° 1 mm 6 m/s 744 mmHg 88%
20:00 +17°C° 0.2 mm 6 m/s 745 mmHg 88%
21:00 +16°C° 0.2 mm 6 m/s 745 mmHg 89%
22:00 +16°C° 0.2 mm 6 m/s 746 mmHg 89%
23:00 +16°C° 0 mm 6 m/s 746 mmHg 88%

2 Agosto, Segunda-feira

Tempo Temperatura Precipitação Vento Pressão Humidade
00:00 +16°C° 0 mm 6 m/s 746 mmHg 88%
01:00 +16°C° 0 mm 6 m/s 747 mmHg 87%
02:00 +15°C° 0 mm 5 m/s 747 mmHg 86%
03:00 +15°C° 0 mm 5 m/s 747 mmHg 86%
04:00 +15°C° 0 mm 4 m/s 747 mmHg 85%
05:00 +17°C° 0 mm 4 m/s 747 mmHg 81%
06:00 +17°C° 0 mm 4 m/s 748 mmHg 77%
07:00 +18°C° 0 mm 4 m/s 748 mmHg 72%
08:00 +20°C° 0 mm 5 m/s 748 mmHg 66%
09:00 +21°C° 0 mm 5 m/s 749 mmHg 59%
10:00 +23°C° 0 mm 5 m/s 749 mmHg 52%
11:00 +25°C° 0 mm 5 m/s 749 mmHg 49%
12:00 +26°C° 0 mm 5 m/s 749 mmHg 45%
13:00 +27°C° 0 mm 5 m/s 748 mmHg 42%
14:00 +27°C° 0 mm 5 m/s 748 mmHg 41%
15:00 +27°C° 0 mm 5 m/s 748 mmHg 40%
16:00 +27°C° 0 mm 5 m/s 748 mmHg 39%
17:00 +26°C° 0 mm 4 m/s 749 mmHg 45%
18:00 +25°C° 0 mm 3 m/s 749 mmHg 50%
19:00 +23°C° 0 mm 2 m/s 749 mmHg 55%
20:00 +21°C° 0 mm 2 m/s 749 mmHg 59%
21:00 +20°C° 0 mm 2 m/s 750 mmHg 63%
22:00 +19°C° 0 mm 2 m/s 750 mmHg 67%
23:00 +18°C° 0 mm 2 m/s 750 mmHg 69%

3 Agosto, Terça-feira

Tempo Temperatura Precipitação Vento Pressão Humidade
00:00 +18°C° 0 mm 2 m/s 750 mmHg 72%
01:00 +17°C° 0 mm 2 m/s 751 mmHg 74%
02:00 +18°C° 0 mm 1 m/s 751 mmHg 76%
03:00 +16°C° 0 mm 1 m/s 751 mmHg 78%
04:00 +16°C° 0 mm 1 m/s 751 mmHg 80%
05:00 +18°C° 0 mm 1 m/s 751 mmHg 75%
06:00 +20°C° 0 mm 1 m/s 751 mmHg 70%
07:00 +19°C° 0 mm 0 m/s 751 mmHg 64%
08:00 +23°C° 0 mm 1 m/s 751 mmHg 58%
09:00 +25°C° 0 mm 1 m/s 751 mmHg 53%
10:00 +26°C° 0 mm 1 m/s 751 mmHg 47%
11:00 +27°C° 0 mm 1 m/s 750 mmHg 44%
12:00 +28°C° 0 mm 2 m/s 750 mmHg 41%
13:00 +29°C° 0 mm 2 m/s 749 mmHg 38%
14:00 +28°C° 0.1 mm 2 m/s 749 mmHg 41%
15:00 +27°C° 0.1 mm 3 m/s 748 mmHg 45%
16:00 +27°C° 0.1 mm 3 m/s 747 mmHg 48%
17:00 +24°C° 6.8 mm 3 m/s 748 mmHg 63%
18:00 +20°C° 6.8 mm 3 m/s 749 mmHg 77%
19:00 +18°C° 6.8 mm 2 m/s 750 mmHg 92%
20:00 +18°C° 0.2 mm 2 m/s 750 mmHg 92%
21:00 +18°C° 0.2 mm 1 m/s 750 mmHg 91%
22:00 +18°C° 0.2 mm 1 m/s 750 mmHg 91%
23:00 +18°C° 0 mm 1 m/s 750 mmHg 91%

4 Agosto, Quarta-feira

Tempo Temperatura Precipitação Vento Pressão Humidade
00:00 +16°C° 0 mm 1 m/s 750 mmHg 91%
01:00 +16°C° 0 mm 2 m/s 750 mmHg 91%
02:00 +16°C° 0 mm 2 m/s 750 mmHg 91%
03:00 +16°C° 0 mm 2 m/s 750 mmHg 90%
04:00 +15°C° 0 mm 2 m/s 750 mmHg 90%
05:00 +16°C° 0 mm 1 m/s 750 mmHg 86%
06:00 +18°C° 0 mm 1 m/s 750 mmHg 82%
07:00 +19°C° 0 mm 1 m/s 751 mmHg 78%
08:00 +21°C° 0 mm 1 m/s 750 mmHg 71%
09:00 +22°C° 0 mm 1 m/s 750 mmHg 64%
10:00 +24°C° 0 mm 1 m/s 750 mmHg 57%
11:00 +25°C° 0 mm 1 m/s 750 mmHg 53%
12:00 +26°C° 0 mm 1 m/s 750 mmHg 49%
13:00 +27°C° 0 mm 1 m/s 749 mmHg 45%
14:00 +27°C° 0 mm 1 m/s 749 mmHg 47%
15:00 +26°C° 0 mm 1 m/s 749 mmHg 49%
16:00 +26°C° 0 mm 1 m/s 748 mmHg 51%
17:00 +25°C° 0 mm 1 m/s 748 mmHg 54%
18:00 +24°C° 0 mm 1 m/s 748 mmHg 57%
19:00 +23°C° 0 mm 2 m/s 748 mmHg 60%
20:00 +20°C° 2.1 mm 2 m/s 749 mmHg 72%
21:00 +19°C° 2.1 mm 2 m/s 749 mmHg 84%
22:00 +17°C° 2.1 mm 3 m/s 750 mmHg 95%
23:00 +17°C° 2.2 mm 3 m/s 750 mmHg 95%
Mostrar mais

Necessitamos do seu Consentimento

A Meteoprog e os seus Fornecedores de Serviços podem armazenar e aceder a dados pessoais como cookies, identificadores do dispositivo ou outras tecnologias semelhantes existentes no seu dispositivo e processar estes dados para personalizar conteúdos e anúncios, assim como funcionalidades nas redes sociais e análise de tráfego.

  • Armazenar e/ou aceder a informações no seu dispositivo

    Os cookies, identificadores do dispositivo ou outras informações podem ser armazenados ou acedidos no seu dispositivo, para os fins acima indicados.

  • Anúncios e conteúdos personalizados, medição de anúncios e conteúdos, dados sobre o público-alvo e desenvolvimento de produtos

    Os anúncios e os conteúdos podem ser personalizados com base num perfil. Podem ser adicionados dados adicionais para uma maior personalização dos anúncios e dos conteúdos. A eficácia dos anúncios e dos conteúdos pode ser medida. Podem ser obtidas informações sobre o público que visualizou os anúncios e os conteúdos. Estes dados podem ser usados para desenvolver ou melhorar sistemas, softwares ou a experiência do utilizador.

Ao clicar em "Eu concordo”, permitirá o uso de cookies, identificadores do dispositivo e web beacons mencionados ou outras tecnologias semelhantes. As configurações do navegador do seu dispositivo podem ser alteradas.

Para certos fins, podem ser invocados interesses legítimos ao invés de consentimento. Pode ler mais informação sobre este assunto na nossa Política de Privacidade e Cookies.